{"data":{"norad_id":58787,"intl_designator":"2024-012A","name":"STARLINK-31189","alt_names":[],"object_type":"PAYLOAD","status":"ACTIVE","operator":null,"country":"US","launch_date":"2024-01-15","launch_site_code":"AFETR","launch_vehicle":null,"mission":null,"orbit_class":"UNKNOWN","rcs_meters":null,"size_class":null,"mass_kg":null,"dimensions":null,"purposes":["comms"],"wikipedia_slug":null,"has_3d_model":false,"image_url":null,"decayed_at":null,"tle_current":{"epoch":"2026-05-25T03:34:12.901152Z","epoch_age_seconds":69090,"freshness":"FRESH","line1":"1 58787U 24012A   26145.14876043  .00003053  00000+0  12043-3 0  9998","line2":"2 58787  43.0015  93.0861 0000909 255.8035 104.2716 15.27570260132937","mean_motion":15.2757026,"eccentricity":9.09e-5,"inclination_deg":43.0015,"raan_deg":93.0861,"arg_perigee_deg":255.8035,"mean_anomaly_deg":104.2716,"bstar":0.00012043,"rev_number":13293,"period_min":94.267349771525,"perigee_km":482.45457679132,"apogee_km":483.70194572581,"semimajor_km":6861.2152612586,"source":"CELESTRAK","updated_at":"2026-05-25T13:38:18.748334Z"}}}